Regional Weather Roundup
Issued by NWS Melbourne, FL

Current Version | Previous Version | Text Only | Print | Product List | Glossary On
Versions: 1 2 3 4 5 6 7 8 9 10 11 12 13 14 15 16 17 18 19 20 21 22 23 24 25 26 27 28 29 30 31 32 33 34 35 36 37 38 39 40 41 42 43 44 45 46 47 48 49 50
000
ASUS42 KMLB 251411
RWRMLB
HOURLY WEATHER ROUNDUP AROUND FLORIDA
NATIONAL WEATHER SERVICE OFFICE MELBOURNE FL
1000 AM EDT SUN AUG 25 2019

CITY           SKY/WX    TMP DP  RH WIND       PRES   REMARKS
MELBOURNE      FAIR      87  76  69 N9        29.96R
FORT PIERCE    PTSUNNY   86  73  65 CALM      29.96R
ORLANDO INTL   PTSUNNY   83  75  77 N9        29.98R
DAYTONA BEACH  FAIR      86  75  69 N12       29.97R
VERO BEACH     FAIR      85  74  69 NW7       29.96R
$$
...ELSEWHERE ACROSS CENTRAL FLORIDA...

CITY           SKY/WX    TMP DP  RH WIND       PRES   REMARKS
PATRICK AFB    FAIR      85  79  82 N9        29.96R
KSC            PTSUNNY   84  79  84 N6          N/A
CAPE CANAVERAL FAIR      86  79  80 MISG      29.95R HX  99
TITUSVILLE     PTSUNNY   86  79  79 N8        29.97R HX  99
ORLANDO EXEC   PTSUNNY   84  75  74 N8        29.98R
LEESBURG       PTSUNNY   84  76  76 N8        29.99R
SANFORD        PTSUNNY   85  76  74 N9        29.98R
DELAND         PTSUNNY   84  75  74 NE9       29.97S
NEW SMYRNA BCH MOSUNNY   86  75  70 NE10      29.98R
ORMOND BEACH   PTSUNNY   82  79  89 N12       29.98R
WINTER HAVEN   FAIR      86  75  69 N8        29.99R
KISSIMMEE      FAIR      84  75  74 N8        29.99S VSB 1/4
OKEECHOBEE     FAIR      82  73  74 CALM      29.96R
TAMPA          FAIR      86  75  69 VRB5      29.98R
$$
...NORTHERN FLORIDA...

CITY           SKY/WX    TMP DP  RH WIND       PRES   REMARKS
PALM COAST     PTSUNNY   84  75  74 N9        29.98R
ST AUGUSTINE   PTSUNNY   85  77  77 N16       30.00R
OCALA          FAIR      83  76  79 VRB6      30.00R
GAINESVILLE    FAIR      83  76  79 NE8       30.02R
JACKSONVILLE   PTSUNNY   82  75  79 N12       30.00R
TALLAHASSEE    CLOUDY    79  77  94 E7        30.01R
$$
...ALONG THE SOUTHEAST COAST TO THE KEYS...

CITY           SKY/WX    TMP DP  RH WIND       PRES   REMARKS
STUART         MOSUNNY   84  75  74 W5        29.97R
WEST PALM BCH  PTSUNNY   85  77  77 W10       29.96R
MIAMI          FAIR      88  76  67 SW7       29.97R HX  99
KEY WEST       FAIR      87  77  72 SW14      29.97R HX  99
$$
...MARINE REPORTS...

STATION/POSITION TIME  TEMP    WIND        PRES    WAVE   SWELL
                       AIR SEA DIR/SP/G            HT/PER HT/PER
                 (UTC) (F)     (DEG/KT/KT) (MB)    (FT/S) (FT/S)
ST AUGUSTINE FP  1400   82 83   10/ 11/ 12 1015.7R
20NM E CAPE CANA 1350   82 82  340/  6/  8 1014.4R   2/ 8   2/ 8
TRIDENT PIER     1330   81 83  330/  5/  8 1015.8R
SEBASTIAN INLET  1345   80 83  360/  8     1015.0R
4NM E PORT CANAV 1330      83                N/A     1/ 7
6NM NE FPR INLET 1330      84                N/A     2/ 7
SETTLEMENT PT GB 1400   83     210/ 12/ 13 1014.3R
$$



USA.gov is the U.S. government's official web portal to all federal, state and local government web resources and services.